Regional Weather Roundup
Issued by NWS

Home | Current Version | Previous Version | Text Only | Print | Product List | Glossary On
Versions: 1 2 3 4 5 6 7 8 9 10 11 12 13 14 15 16 17 18 19 20 21 22 23 24 25 26 27 28 29 30 31 32 33 34 35 36 37 38 39 40 41 42 43 44 45 46 47 48 49 50
428
ASUS43 KMKX 090400
RWRWI

WISCONSIN REGIONAL WEATHER ROUNDUP
NATIONAL WEATHER SERVICE MILWAUKEE/SULLIVAN WI
1000 PM CST MON FEB 08 2016

NOTE: "FAIR" INDICATES FEW OR NO CLOUDS BELOW 12,000 FEET WITH NO
SIGNIFICANT WEATHER AND/OR OBSTRUCTIONS TO VISIBILITY.

WIZ001-002-006>008-014>016-023>028-090500-
NORTHWEST WISCONSIN

CITY           SKY/WX    TMP DP  RH WIND       PRES   REMARKS
SUPERIOR ARPT  CLOUDY     9   0  67 N13G20    30.00S WCI  -6
ASHLAND        CLOUDY    11   6  81 NW8       29.91S HAZE    WCI  -1
HAYWARD        LGT SNOW   8   2  76 N8        29.89S WCI  -4
SIREN          CLOUDY    10   1  68 N12G18    29.95S WCI  -5
CUMBERLAND     CLOUDY     9   1  72 N14G20    29.89S WCI  -8
RICE LAKE      MOCLDY    10   2  71 N15       29.91S WCI  -7
CHETEK         CLOUDY     9   3  75 MISG      29.90S
LADYSMITH      CLOUDY    10   4  77 NW14      29.87S WCI  -5
EAU CLAIRE     LGT SNOW  11   4  73 N13       29.89S WCI  -4
MENOMONIE      MOCLDY    13   3  65 NW16      29.91S WCI  -3
NEW RICHMOND   CLOUDY    11   4  71 N17       29.94S WCI  -6
OSCEOLA        CLOUDY    12   4  69 NW13      29.99R WCI  -3
$$

WIZ003>005-009-010-017-018-090500-
NORTH CENTRAL WISCONSIN

CITY           SKY/WX    TMP DP  RH WIND       PRES   REMARKS
MANITOWISH WTR LGT SNOW  11   8  87 NW7       29.76S WCI   0
ARBOR VITAE    LGT SNOW  11   8  85 NW6       29.76S WCI   2
WOODRUFF       LGT SNOW  11   8  85 NW6       29.76S WCI   2
RHINELANDER    CLOUDY    11   5  77 NW6       29.74F WCI   1
EAGLE RIVER    LGT SNOW  12   6  78 NW7       29.73S WCI   1
LAND O LAKES   LGT SNOW  13   9  85 NW8       29.74S WCI   1
PHILLIPS       FLURRIES   8   3  79 NW8G17    29.80S WCI  -4
TOMAHAWK       LGT SNOW  10   6  82 NW9       29.78S WCI  -3
MEDFORD        LGT SNOW  10   4  80 NW14G22   29.78S WCI  -7
MERRILL        LGT SNOW  12   6  78 NW6G16    29.78F WCI   2
$$

WIZ029-030-035-036-043>047-090500-
CENTRAL WISCONSIN

CITY           SKY/WX    TMP DP  RH WIND       PRES   REMARKS
WAUSAU         LGT SNOW  14   7  73 NW13      29.77R WCI   0
MOSINEE        FLURRIES  14  10  85 NW10      29.79S WCI   1
MARSHFIELD     LGT SNOW  12   4  70 NW17      29.79S WCI  -5
STEVENS POINT  LGT SNOW  13   8  79 N7        29.79S WCI   3
WAUPACA        LGT SNOW  20  16  82 NW10      29.78R WCI   9
WAUTOMA        LGT SNOW  16  10  79 NW13G20   29.79S WCI   2
WISC RAPIDS    FLURRIES  14   7  73 NW12G20   29.82R WCI   0
CAMP DOUGLAS   FLURRIES  14  12  92 NW14      29.83S WCI  -1
$$

WIZ011>013-019>022-031-037>040-048>050-090500-
NORTHEAST WISCONSIN

CITY           SKY/WX    TMP DP  RH WIND       PRES   REMARKS
ANTIGO         FLURRIES  12   8  83 NW9       29.73S WCI   0
SHAWANO        FLURRIES  21  13  72 N10       29.77S WCI   9
OCONTO         PTCLDY    18  15  87 N6        29.76S WCI  10
STURGEON BAY   CLOUDY    18   9  68 N20G26    29.75S WCI   1
GREEN BAY      FLURRIES  20  15  81 NW12      29.75S WCI   8
MANITOWOC      FLURRIES  21  16  79 N13G24    29.74S WCI   9
APPLETON       LGT SNOW  19  12  73 NW15      29.73R WCI   5
CLINTONVILLE   FLURRIES  19  12  73 NW7       29.77R WCI  10
OSHKOSH        LGT SNOW  18  14  84 NW10      29.75R FOG     WCI   6
$$

WIZ032>034-041-042-053>061-090500-
SOUTHWEST WISCONSIN

CITY           SKY/WX    TMP DP  RH WIND       PRES   REMARKS
LA CROSSE      LGT SNOW  15   9  76 NW13      29.89S WCI   1
SPARTA         LGT SNOW  14  10  84 NW9       29.87S WCI   2
VIROQUA        CLOUDY    12   8  85 NW14      29.82S WCI  -3
BOSCOBEL       LGT SNOW  16  10  77 NW5       29.87F WCI   9
PRAIRIE DU CHI MIX PCPN  15  10  78 NW9       29.88F WCI   4
PLATTEVILLE    PTCLDY    15  10  80 NW12      29.82F WCI   2
$$

WIZ056-057-062-063-064-067-068-090500-
SOUTH CENTRAL WISCONSIN

CITY           SKY/WX    TMP DP  RH WIND       PRES   REMARKS
REEDSBURG      LGT SNOW  14   9  79 NW12G21   29.82S WCI   0
BARABOO/DELLS  LGT SNOW  14   9  79 NW9       29.80F WCI   2
LONE ROCK      LGT SNOW  15   9  76 NW8       29.85S WCI   4
MINERAL POINT  FLURRIES  18  10  73 NW15      29.80S WCI   3
MADISON        LGT SNOW  15   9  76 NW10G21   29.79S WCI   2
MIDDLETON      CLOUDY    17  12  79 NW12G21   29.80S WCI   4
WATERTOWN      CLOUDY    17  14  86 NW10G21   29.76S WCI   5
MONROE         CLOUDY    18  10  73 NW14      29.78R WCI   4
JANESVILLE     FLURRIES  21  14  73 NW15G22   29.78R WCI   8
$$

WIZ051-052-058>065-066-070>072-090500-
SOUTHEAST WISCONSIN

CITY           SKY/WX    TMP DP  RH WIND       PRES   REMARKS
MILWAUKEE      LGT SNOW  21  16  81 NW16G23   29.72S FOG     WCI   7
WAUKESHA       LGT SNOW  19  14  79 NW13      29.74S WCI   7
MILWAUKEE/TIMM FLURRIES  21  16  79 NW14      29.74S WCI   8
RACINE         LGT SNOW  22  16  78 NW14G21   29.73S WCI   9
BURLINGTON     FLURRIES  19  15  86 NW12      29.74S WCI   7
KENOSHA        LGT SNOW  22  16  78 NW16      29.72F WCI   8
FOND DU LAC    FLURRIES  18  13  80 NW12      29.75S WCI   5
SHEBOYGAN      LGT SNOW  24  19  81 N13       29.72S WCI  12
WEST BEND      LGT SNOW  21  18  86 NW15G21   29.72S WCI   8
JUNEAU         CLOUDY    16  12  84 NW10G16   29.76S FOG     WCI   4
$$

LSZ147-162-090500-
LAKE SUPERIOR

STATION/POSITION TIME  TEMP    WIND        PRES    WAVE
                       AIR SEA DIR/SP/G            HT/PER
                 (UTC) (F)     (DEG/KT/KT) (MB)    (FT/S)
DEVILS ISLAND    0300   14     350/ 23/ 28 1014.3R
PORT WING        0300   14     330/ 19/ 24 1014.6
SAXON HARBOR     0340   16                 1011.9S
$$

LMZ867-665-643>646-090500-
LAKE MICHIGAN

STATION/POSITION TIME  TEMP    WIND        PRES    WAVE
                       AIR SEA DIR/SP/G            HT/PER
                 (UTC) (F)     (DEG/KT/KT) (MB)    (FT/S)
CHAMBERS ISLAND  0300   19     310/ 17/ 23 1007.5
NORTHPORT PIER   0302   21     330/ 21     1007.1R
ALGOMA LAKESHORE 0311          320/ 13/ 18   N/A
KEWAUNEE LAKESHO 0300   21     340/ 10/ 16 1006.4R
SHEBOYGAN LAKESH 0300   26     340/ 15/ 19 1007.4S
PORT WASHINGTON  0300   23     300/  9/ 17 1007.5S
MILWAUKEE LAKESH 0310   22     300/ 11/ 13   N/A
KENOSHA   LAKESH 0300   23     300/ 12/ 18 1006.8S
$$

TC  - TEMPERATURE IN CELSIUS
VSB - VISIBILITY IN STATUTE MILES
WCI - WIND CHILL INDEX
HX  - HEAT INDEX





USA.gov is the U.S. government's official web portal to all federal, state and local government web resources and services.